Home > Weather > Aqtobe > Past weeks

Flag for Kazakhstan Weather for the Past 2 Weeks in Aqtobe, Kazakhstan

Now
64 °F

Broken clouds.


Feels Like: 64 °F
Forecast: 51 / 62 °F
Wind: 10 mph from Southeast

Location: Aktjubinsk

Current Time: May 2, 2016 at 4:21:38 PM

Latest Report: May 2, 2016 at 4:00 PM


Visibility: N/A

Pressure: 30.01 "Hg

Humidity: 43%

Dew Point: 41 °F

Location of AqtobeLocation

Historic Weather in Aqtobe — Graph

°F

Aqtobe Temperature Yesterday

Maximum temperature yesterday: 55 °F (at 2:30 PM)
Minimum temperature yesterday: 48 °F (at 4:30 AM)
Average temperature yesterday: 52 °F

High & Low Weather Summary for the Past Weeks

 TemperatureHumidityPressure
High75 °F (Apr 22, 2:00 PM)100% (Apr 18, 5:00 AM)30.27 "Hg (Apr 18, 5:00 AM)
Low37 °F (Apr 25, 5:30 AM)26% (Apr 26, 4:30 PM)29.59 "Hg (Apr 18, 5:00 AM)
Average54 °F69%29.97 "Hg
* Reported Apr 17 3:00 PM — May 2 3:00 PM, Aqtobe, Weather by CustomWeather, © 2016

Note: Actual official high and low records may vary slightly from our data, if they occured in-between our weather recording intervals... More about our weather records

Advertising

Aqtobe Weather History for the Previous 24 Hours

Scroll right to see more
 ConditionsComfort  
Time TempWeatherWind HumidityBarometerVisibility
3:00 PM
Mon, May 2
63 °FBroken clouds.10 mph52%30.01 "HgN/A
2:30 PM63 °FBroken clouds.10 mph52%30.01 "HgN/A
2:00 PM64 °FBroken clouds.13 mph49%30.01 "HgN/A
1:30 PM61 °FPartly sunny.10 mph59%30.01 "HgN/A
1:00 PM61 °FPartly sunny.10 mph59%30.01 "HgN/A
12:30 PM61 °FScattered clouds.8 mph63%30.01 "HgN/A
12:00 PM59 °FScattered clouds.8 mph68%30.01 "HgN/A
11:30 AM59 °FPartly sunny.8 mph68%30.01 "HgN/A
10:00 AM55 °FPassing clouds.3 mph72%29.98 "HgN/A
9:30 AM54 °FPartly sunny.6 mph82%29.98 "HgN/A
9:00 AM54 °FPartly sunny.6 mph82%29.98 "HgN/A
8:30 AM52 °FSunny.3 mph88%29.98 "Hg10 mi
8:00 AM50 °FSunny.1 mph88%29.98 "Hg10 mi
7:30 AM50 °FSunny.No wind94%29.98 "Hg10 mi
7:00 AM48 °FSunny.No wind94%29.95 "Hg10 mi
6:30 AM48 °FSunny.3 mph94%29.95 "Hg10 mi
6:00 AM48 °FSunny.3 mph94%29.95 "Hg10 mi
5:30 AM50 °FClear.3 mph88%29.95 "Hg10 mi
5:00 AM48 °FClear.3 mph100%29.95 "Hg10 mi
4:30 AM48 °FLight rain. Clear.1 mph94%29.95 "HgN/A
4:00 AM48 °FClear.No wind94%29.95 "Hg10 mi
3:30 AM50 °FClear.No wind88%29.95 "Hg10 mi
3:00 AM50 °FClear.No wind88%29.92 "Hg10 mi
2:30 AM50 °FLight rain. Clear.1 mph88%29.92 "HgN/A
2:00 AM52 °FLight rain. Clear.3 mph82%29.92 "HgN/A
1:30 AM52 °FLight rain. Low clouds.6 mph82%29.92 "HgN/A
1:00 AM52 °FLight rain. Overcast.3 mph82%29.92 "HgN/A
12:30 AM52 °FClear.3 mph77%29.92 "Hg10 mi
12:00 AM52 °FClear.1 mph77%29.92 "Hg10 mi
11:30 PM
Sun, May 1
52 °FClear.1 mph82%29.92 "Hg10 mi
11:00 PM52 °FClear.3 mph82%29.92 "Hg10 mi
10:30 PM52 °FClear.3 mph77%29.92 "Hg10 mi
10:00 PM52 °FClear.3 mph77%29.92 "Hg10 mi
9:30 PM52 °FClear.3 mph82%29.92 "Hg10 mi
9:00 PM54 °FClear.3 mph72%29.92 "Hg10 mi
8:30 PM55 °FSunny.8 mph59%29.92 "Hg10 mi
8:00 PM55 °FOvercast.8 mph59%29.89 "HgN/A
7:30 PM55 °FOvercast.6 mph63%29.89 "HgN/A
7:00 PM55 °FOvercast.10 mph63%29.89 "HgN/A
6:30 PM55 °FOvercast.13 mph59%29.89 "HgN/A
6:00 PM55 °FOvercast.8 mph63%29.89 "HgN/A
5:30 PM55 °FOvercast.8 mph63%29.89 "HgN/A
5:00 PM55 °FOvercast.10 mph63%29.89 "HgN/A
4:30 PM55 °FOvercast.10 mph59%29.89 "HgN/A
4:00 PM55 °FOvercast.8 mph59%29.89 "HgN/A
Weather by CustomWeather, © 2016

See weather overviewHow to use our weather pages